Location: High Point State Park
(41.2941°N, 74.6906°W)
Time: 06:21:23
(UTC-04:00)

Hubble Space Telescope - Visible Passes

Search period start: 01 October 2016 00:00
Search period end: 11 October 2016 00:00
Orbit: 539 x 542 km, 28.5° (Epoch: 30 September)

Date Brightness Start Highest point End Pass type
(mag) Time Alt. Az. Time Alt. Az. Time Alt. Az.
08 Oct 3.5 20:48:43 10° SSW 20:48:47 10° SSW 20:48:47 10° SSW visible
09 Oct 3.2 18:59:15 10° S 19:00:29 11° S 19:01:41 10° SSE visible
09 Oct 3.4 20:38:48 10° SSW 20:39:30 12° SSW 20:39:30 12° SSW visible
10 Oct 3.2 18:48:50 10° SSW 18:50:30 12° S 18:52:11 10° SSE visible
10 Oct 3.2 20:28:57 10° SW 20:30:13 13° SSW 20:30:13 13° SSW visible
